Skip Page Navigation
NASA JPL Caltech
NASA Logo - Jet Propulsion Laboratory + View the NASA Portal
+ Center for Near-Earth Object Studies
JPL Home Earth Solar System Stars & Galaxies Technology
JPL Solar System Dynamics
BODIES ORBITS EPHEMERIDES TOOLS PHYSICAL DATA DISCOVERY FAQ SITE MAP
IMPORTANT: The SSD Announcement email list is now available. Major changes are coming in the near future, including possible hostname and/or URL changes. To be notified of such changes, subscribe to this email list.

Please visit this page for more details.


JPL Small-Body Database Browser
Search: [ help ]  
392306 (2010 CD183)
Classification: Main-belt Asteroid          SPK-ID: 2392306
Ephemeris | Orbit Diagram | Orbital Elements | Mission Design | Physical Parameters | Discovery Circumstances ]

[ show orbit diagram ]
Orbital Elements at Epoch 2458600.5 (2019-Apr-27.0) TDB
Reference: JPL 8 (heliocentric ecliptic J2000)
 Element Value Uncertainty (1-sigma)   Units 
e .1862713774526014 4.5989e-08  
a 2.442562914781334 3.1786e-08 au
q 1.987583356130374 1.2597e-07 au
i 4.547987368941443 1.3469e-05 deg
node 201.8093378820361 6.0126e-05 deg
peri 272.0650406675342 8.3612e-05 deg
M 176.1252240524649 5.5087e-05 deg
tp 2457918.340199236251
(2017-Jun-13.84019924)
0.00020465 TDB
period 1394.33479557588
3.82
2.7217e-05
7.452e-08
d
yr
n .2581876326562695 5.0398e-09 deg/d
Q 2.897542473432294 3.7707e-08 au
  Orbit Determination Parameters
   # obs. used (total)      162  
   data-arc span      4486 days (12.28 yr)  
   first obs. used      2005-12-30  
   last obs. used      2018-04-12  
   planetary ephem.      DE431  
   SB-pert. ephem.      SB431-N16  
   condition code      0  
   norm. resid. RMS      .65843  
   source      ORB  
   producer      Otto Matic  
   solution date      2019-Jul-14 13:22:22  

Additional Information
 Earth MOID = 1.01042 au 
 Jupiter MOID = 2.23302 au 
 T_jup = 3.472 
[ show covariance matrix ]

Ephemeris | Orbit Diagram | Orbital Elements | Mission Design | Physical Parameters | Discovery Circumstances ]

Physical Parameter Table
Parameter Symbol Value Units Sigma Reference Notes
absolute magnitude H 18.0   n/a MPO440693  

392306 (2010 CD183)          Discovered 2010-Feb-15 by Pan-STARRS 1 at Haleakala
Reference: Last Updated: 2014-04-17

Alternate Designations
 2010 CD183 = 2008 SW108 
Ephemeris | Orbit Diagram | Orbital Elements | Mission Design | Physical Parameters | Discovery Circumstances ]
ABOUT SSD CREDITS/AWARDS PRIVACY/COPYRIGHT GLOSSARY LINKS
FirstGov
(server date/time)  
NASA Home Page
Site Manager:   Ryan S. Park
Webmaster  Alan B. Chamberlin